Regional Weather Roundup
Issued by NWS

Home | Current Version | Previous Version | Text Only | Print | Product List | Glossary Off
Versions: 1 2 3 4 5 6 7 8 9 10 11 12 13 14 15 16 17 18 19 20 21 22 23 24 25 26 27 28 29 30 31 32 33 34 35 36 37 38 39 40 41 42 43 44 45 46 47 48 49 50

000
ASUS43 KLSX 230359
RWRMO

WEATHER SUMMARY FOR MISSOURI
NATIONAL WEATHER SERVICE SPRINGFIELD MO
1100 PM CDT THU JUN 22 2017

NOTE: "FAIR" INDICATES FEW OR NO CLOUDS BELOW 12,000 FEET WITH NO
       SIGNIFICANT WEATHER AND/OR OBSTRUCTIONS TO VISIBILITY.
       CURRENT SKY AND/OR WEATHER CONDITIONS ARE NOT AVAILABLE FOR
       CHILLICOTHE AND FARMINGTON.

MOZ001>031-035>038-043-044-053-054-230500-
...NORTHERN AND WESTERN MISSOURI...

CITY           SKY/WX    TMP DP  RH WIND       PRES   REMARKS
KANSAS CTY INT PTCLDY    76  72  87 SE6       29.70S
KANSAS C DTWN  CLOUDY    83  74  74 S9        29.68F
LEE`S SUMMIT   PTCLDY    79  74  84 S5        29.72R
ST JOSEPH      CLEAR     80  73  79 S9        29.68R
CHILLICOTHE      N/A     78  73  84 S3        29.71S
KIRKSVILLE     PTCLDY    75  72  90 S3        29.72R

$$
MOZ066>068-077>081-088>096-101>105-230500-
...SOUTHWEST MISSOURI...

CITY           SKY/WX    TMP DP  RH WIND       PRES   REMARKS
SPRINGFIELD    CLOUDY    77  71  82 S14       29.72S
JOPLIN         CLEAR     79  74  84 S3        29.72R
BRANSON        MOCLDY    73  72  94 SE5       29.76S

$$
MOZ032>034-039>042-045>050-055>058-069>072-230500-
...CENTRAL MISSOURI...

CITY           SKY/WX    TMP DP  RH WIND       PRES   REMARKS
COLUMBIA       CLEAR     77  74  90 SE8       29.73R
JEFFERSON CITY CLOUDY    79  73  82 E3        29.71R
ROLLA          MOCLDY    76  72  87 SE9       29.74R
SEDALIA        MOCLDY    76  75  97 CALM      29.73R
WARRENSBURG    CLEAR     73  72  94 CALM      29.71R
OSAGE BEACH    MOCLDY    77  73  87 E3        29.73R

$$
MOZ051-052-059>065-230500-
...EAST CENTRAL MISSOURI...

CITY           SKY/WX    TMP DP  RH WIND       PRES   REMARKS
ST LOUIS INTL  MOCLDY    81  73  76 SE9       29.75S
SPIRIT OF STL  MOCLDY    78  74  87 CALM      29.73S
ST CHARLES     MOCLDY    78  74  87 MISG      29.73S

$$
MOZ072>076-082>087-097>100-106>115-230500-
...SOUTH CENTRAL AND SOUTHEAST MISSOURI...

CITY           SKY/WX    TMP DP  RH WIND       PRES   REMARKS
CAPE GIRARDEAU CLOUDY    78  74  87 S7        29.76F
FARMINGTON     CLOUDY    74  72  93 CALM      29.78S
POPLAR BLUFF   LGT RAIN  75  75 100 CALM      29.76F
WEST PLAINS    CLOUDY    75  72  90 SE5       29.78R

$$



USA.gov is the U.S. government's official web portal to all federal, state and local government web resources and services.